Time,TemperatureF,DewpointF,PressureIn,WindDirection,WindDirectionDegrees,WindSpeedMPH,WindSpeedGustMPH,Humidity,HourlyPrecipIn,Conditions,Clouds,dailyrainin,SoftwareType,DateUTC
2013-05-28 11:35:00,76.0,64.2,24.25,SSW,202,0.0,1.0,67,0.00,,,0.01,Wunderground v.1.15,2013-05-28 16:35:00,
2013-05-28 11:41:00,75.7,64.0,24.25,NNW,331,0.0,1.0,67,0.00,,,0.01,Wunderground v.1.15,2013-05-28 16:41:00,
2013-05-28 11:46:00,75.6,64.3,24.25,NNE,19,0.0,9.0,68,0.00,,,0.01,Wunderground v.1.15,2013-05-28 16:46:00,
2013-05-28 11:51:00,75.5,64.2,24.25,ENE,61,0.0,1.0,68,0.00,,,0.01,Wunderground v.1.15,2013-05-28 16:51:00,
2013-05-28 11:56:00,75.5,64.6,24.24,NW,317,0.0,3.0,69,0.00,,,0.01,Wunderground v.1.15,2013-05-28 16:56:00,
2013-05-28 12:01:00,75.4,64.5,24.25,SSW,198,1.0,2.0,69,0.00,,,0.01,Wunderground v.1.15,2013-05-28 17:01:00,
2013-05-28 12:06:00,75.4,64.5,24.25,WNW,294,1.0,3.0,69,0.00,,,0.01,Wunderground v.1.15,2013-05-28 17:06:00,
2013-05-28 12:11:00,75.5,65.0,24.24,SSE,163,1.0,2.0,70,0.00,,,0.01,Wunderground v.1.15,2013-05-28 17:11:00,
2013-05-28 12:16:00,75.6,65.1,24.24,WNW,290,0.0,3.0,70,0.00,,,0.01,Wunderground v.1.15,2013-05-28 17:16:00,
2013-05-28 12:21:00,75.7,65.2,24.24,NNW,333,1.0,2.0,70,0.00,,,0.01,Wunderground v.1.15,2013-05-28 17:21:00,
2013-05-28 12:26:00,75.8,64.9,24.24,West,277,0.0,7.0,69,0.00,,,0.01,Wunderground v.1.15,2013-05-28 17:26:00,
2013-05-28 12:31:00,76.0,65.5,24.24,SW,215,0.0,1.0,70,0.00,,,0.01,Wunderground v.1.15,2013-05-28 17:31:00,
2013-05-28 12:36:00,76.2,65.7,24.24,SE,146,0.0,3.0,70,0.00,,,0.01,Wunderground v.1.15,2013-05-28 17:36:00,
2013-05-28 12:41:00,76.4,65.9,24.24,West,275,3.0,3.0,70,0.00,,,0.01,Wunderground v.1.15,2013-05-28 17:41:00,
2013-05-28 12:46:00,77.3,66.3,24.24,NW,317,0.0,6.0,69,0.00,,,0.01,Wunderground v.1.15,2013-05-28 17:46:00,
2013-05-28 12:51:00,78.7,67.2,24.24,SSE,165,5.0,5.0,68,0.00,,,0.01,Wunderground v.1.15,2013-05-28 17:51:00,
2013-05-28 12:56:00,79.3,66.5,24.24,South,175,3.0,11.0,65,0.00,,,0.01,Wunderground v.1.15,2013-05-28 17:56:00,
2013-05-28 13:01:00,79.6,66.8,24.24,NE,42,0.0,2.0,65,0.00,,,0.01,Wunderground v.1.15,2013-05-28 18:01:00,
2013-05-28 13:06:00,80.4,68.0,24.24,North,360,0.0,6.0,66,0.00,,,0.01,Wunderground v.1.15,2013-05-28 18:06:00,
2013-05-28 13:11:00,80.9,67.1,24.24,South,186,3.0,3.0,63,0.00,,,0.01,Wunderground v.1.15,2013-05-28 18:11:00,
2013-05-28 13:16:00,80.9,66.7,24.24,West,262,1.0,11.0,62,0.00,,,0.01,Wunderground v.1.15,2013-05-28 18:16:00,
2013-05-28 13:21:00,81.5,67.7,24.24,South,187,4.0,5.0,63,0.00,,,0.01,Wunderground v.1.15,2013-05-28 18:21:00,
2013-05-28 13:26:00,82.8,69.8,24.24,SSE,153,0.0,5.0,65,0.00,,,0.01,Wunderground v.1.15,2013-05-28 18:26:00,
2013-05-28 13:31:00,83.8,67.9,24.24,North,350,3.0,4.0,59,0.00,,,0.01,Wunderground v.1.15,2013-05-28 18:31:00,
2013-05-28 13:36:00,83.8,67.9,24.24,WNW,289,0.0,7.0,59,0.00,,,0.01,Wunderground v.1.15,2013-05-28 18:36:00,
2013-05-28 13:41:00,83.2,65.9,24.24,NW,319,6.0,6.0,56,0.00,,,0.01,Wunderground v.1.15,2013-05-28 18:41:00,
2013-05-28 13:46:00,82.9,68.1,24.24,NNE,22,0.0,6.0,61,0.00,,,0.01,Wunderground v.1.15,2013-05-28 18:46:00,
2013-05-28 13:51:00,83.0,67.2,24.24,SSE,168,3.0,3.0,59,0.00,,,0.01,Wunderground v.1.15,2013-05-28 18:51:00,
2013-05-28 13:56:00,83.8,67.4,24.24,ESE,102,1.0,3.0,58,0.00,,,0.01,Wunderground v.1.15,2013-05-28 18:56:00,
2013-05-28 14:01:00,84.5,68.1,24.24,NNW,344,0.0,5.0,58,0.00,,,0.01,Wunderground v.1.15,2013-05-28 19:01:00,
2013-05-28 14:06:00,84.7,68.8,24.24,NE,46,1.0,5.0,59,0.00,,,0.01,Wunderground v.1.15,2013-05-28 19:06:00,
2013-05-28 14:11:00,85.2,67.7,24.24,South,180,4.0,4.0,56,0.00,,,0.01,Wunderground v.1.15,2013-05-28 19:11:00,
2013-05-28 14:16:00,85.2,67.2,24.24,North,5,0.0,6.0,55,0.00,,,0.01,Wunderground v.1.15,2013-05-28 19:16:00,
2013-05-28 14:21:00,85.6,68.6,24.24,NNW,338,0.0,1.0,57,0.00,,,0.01,Wunderground v.1.15,2013-05-28 19:21:00,
2013-05-28 14:26:00,86.1,68.6,24.24,SSW,213,1.0,5.0,56,0.00,,,0.01,Wunderground v.1.15,2013-05-28 19:26:00,
2013-05-28 14:31:00,86.1,69.1,24.23,NNW,333,0.0,1.0,57,0.00,,,0.01,Wunderground v.1.15,2013-05-28 19:31:00,
2013-05-28 14:36:00,86.0,69.0,24.24,East,91,0.0,3.0,57,0.00,,,0.01,Wunderground v.1.15,2013-05-28 19:36:00,
2013-05-28 14:41:00,85.9,68.4,24.24,NW,324,0.0,5.0,56,0.00,,,0.01,Wunderground v.1.15,2013-05-28 19:41:00,
2013-05-28 14:46:00,85.8,67.8,24.24,NNE,32,0.0,5.0,55,0.00,,,0.01,Wunderground v.1.15,2013-05-28 19:46:00,
2013-05-28 14:51:00,86.5,68.4,24.23,ENE,57,0.0,3.0,55,0.00,,,0.01,Wunderground v.1.15,2013-05-28 19:51:00,
2013-05-28 14:56:00,86.9,68.3,24.24,NW,313,1.0,3.0,54,0.00,,,0.01,Wunderground v.1.15,2013-05-28 19:56:00,
2013-05-28 15:01:00,86.9,69.8,24.24,South,183,1.0,1.0,57,0.00,,,0.01,Wunderground v.1.15,2013-05-28 20:01:00,
2013-05-28 15:06:00,86.6,68.5,24.24,NW,306,0.0,6.0,55,0.00,,,0.01,Wunderground v.1.15,2013-05-28 20:06:00,
2013-05-28 15:11:00,86.5,67.9,24.24,SW,219,2.0,3.0,54,0.00,,,0.01,Wunderground v.1.15,2013-05-28 20:11:00,
2013-05-28 15:16:00,86.0,67.4,24.24,NW,318,0.0,10.0,54,0.00,,,0.01,Wunderground v.1.15,2013-05-28 20:16:00,
2013-05-28 15:21:00,85.5,67.5,24.24,North,355,1.0,3.0,55,0.00,,,0.01,Wunderground v.1.15,2013-05-28 20:21:00,
2013-05-28 15:26:00,85.4,68.4,24.24,SSE,164,0.0,4.0,57,0.00,,,0.01,Wunderground v.1.15,2013-05-28 20:26:00,
2013-05-28 15:31:00,86.0,68.0,24.24,West,259,1.0,3.0,55,0.00,,,0.01,Wunderground v.1.15,2013-05-28 20:31:00,
2013-05-28 15:36:00,85.8,67.8,24.24,NE,51,0.0,7.0,55,0.00,,,0.01,Wunderground v.1.15,2013-05-28 20:36:00,
2013-05-28 15:41:00,85.8,67.8,24.24,NW,326,6.0,6.0,55,0.00,,,0.01,Wunderground v.1.15,2013-05-28 20:41:00,
2013-05-28 15:47:00,85.4,66.9,24.24,South,191,2.0,6.0,54,0.00,,,0.01,Wunderground v.1.15,2013-05-28 20:47:00,
2013-05-28 15:52:00,85.0,67.5,24.24,NNW,348,0.0,4.0,56,0.00,,,0.01,Wunderground v.1.15,2013-05-28 20:52:00,
2013-05-28 15:57:00,84.8,67.4,24.24,NNE,13,1.0,4.0,56,0.00,,,0.01,Wunderground v.1.15,2013-05-28 20:57:00,
2013-05-28 16:02:00,84.6,67.7,24.24,ENE,77,1.0,6.0,57,0.00,,,0.01,Wunderground v.1.15,2013-05-28 21:02:00,
2013-05-28 16:07:00,84.3,66.9,24.24,ENE,74,1.0,10.0,56,0.00,,,0.01,Wunderground v.1.15,2013-05-28 21:07:00,
2013-05-28 16:12:00,84.0,67.1,24.24,ESE,113,4.0,7.0,57,0.00,,,0.01,Wunderground v.1.15,2013-05-28 21:12:00,
2013-05-28 16:17:00,84.0,67.6,24.24,North,9,0.0,7.0,58,0.00,,,0.01,Wunderground v.1.15,2013-05-28 21:17:00,
2013-05-28 16:22:00,84.1,67.7,24.24,NNE,17,2.0,2.0,58,0.00,,,0.01,Wunderground v.1.15,2013-05-28 21:22:00,
2013-05-28 16:27:00,83.9,67.0,24.24,ENE,73,2.0,11.0,57,0.00,,,0.01,Wunderground v.1.15,2013-05-28 21:27:00,
2013-05-28 16:32:00,83.7,67.8,24.24,SSW,210,0.0,3.0,59,0.00,,,0.01,Wunderground v.1.15,2013-05-28 21:32:00,
2013-05-28 16:37:00,83.5,66.7,24.24,NNE,32,6.0,7.0,57,0.00,,,0.01,Wunderground v.1.15,2013-05-28 21:37:00,
2013-05-28 16:42:00,83.3,67.5,24.24,NE,39,2.0,3.0,59,0.00,,,0.01,Wunderground v.1.15,2013-05-28 21:42:00,
2013-05-28 16:47:00,83.0,67.2,24.24,North,5,0.0,6.0,59,0.00,,,0.01,Wunderground v.1.15,2013-05-28 21:47:00,
2013-05-28 16:52:00,82.8,67.0,24.24,NNE,21,1.0,3.0,59,0.00,,,0.01,Wunderground v.1.15,2013-05-28 21:52:00,
2013-05-28 16:57:00,82.7,67.4,24.24,SSW,198,0.0,5.0,60,0.00,,,0.01,Wunderground v.1.15,2013-05-28 21:57:00,
2013-05-28 17:02:00,82.8,68.4,24.24,NW,311,1.0,1.0,62,0.00,,,0.01,Wunderground v.1.15,2013-05-28 22:02:00,
2013-05-28 17:07:00,82.9,67.1,24.24,SSW,198,1.0,3.0,59,0.00,,,0.01,Wunderground v.1.15,2013-05-28 22:07:00,
2013-05-28 17:12:00,83.0,68.2,24.24,ENE,64,0.0,1.0,61,0.00,,,0.01,Wunderground v.1.15,2013-05-28 22:12:00,
2013-05-28 17:17:00,83.2,67.9,24.24,SSW,205,1.0,5.0,60,0.00,,,0.01,Wunderground v.1.15,2013-05-28 22:17:00,
2013-05-28 17:22:00,83.2,67.9,24.24,South,182,2.0,4.0,60,0.00,,,0.01,Wunderground v.1.15,2013-05-28 22:22:00,
2013-05-28 17:27:00,83.1,67.3,24.24,North,5,1.0,10.0,59,0.00,,,0.01,Wunderground v.1.15,2013-05-28 22:27:00,
2013-05-28 17:32:00,83.0,67.2,24.24,South,188,0.0,4.0,59,0.00,,,0.01,Wunderground v.1.15,2013-05-28 22:32:00,
2013-05-28 17:37:00,82.8,67.0,24.24,SW,236,6.0,10.0,59,0.00,,,0.01,Wunderground v.1.15,2013-05-28 22:37:00,
2013-05-28 17:42:00,82.6,66.8,24.24,SSE,167,0.0,3.0,59,0.00,,,0.01,Wunderground v.1.15,2013-05-28 22:42:00,
2013-05-28 17:47:00,82.5,67.2,24.24,North,5,1.0,3.0,60,0.00,,,0.01,Wunderground v.1.15,2013-05-28 22:47:00,
2013-05-28 17:52:00,82.3,67.0,24.24,SW,236,0.0,3.0,60,0.00,,,0.01,Wunderground v.1.15,2013-05-28 22:52:00,
2013-05-28 17:57:00,82.2,67.4,24.24,East,98,3.0,7.0,61,0.00,,,0.01,Wunderground v.1.15,2013-05-28 22:57:00,
2013-05-28 18:02:00,81.9,67.1,24.24,SSE,150,0.0,4.0,61,0.00,,,0.01,Wunderground v.1.15,2013-05-28 23:02:00,
2013-05-28 18:07:00,81.7,66.9,24.24,NE,42,0.0,4.0,61,0.00,,,0.01,Wunderground v.1.15,2013-05-28 23:07:00,
2013-05-28 18:12:00,81.4,66.7,24.24,SE,132,0.0,5.0,61,0.00,,,0.01,Wunderground v.1.15,2013-05-28 23:12:00,
2013-05-28 18:17:00,81.2,66.5,24.24,NW,325,0.0,5.0,61,0.00,,,0.01,Wunderground v.1.15,2013-05-28 23:17:00,
2013-05-28 18:22:00,81.1,66.4,24.24,NNE,12,0.0,2.0,61,0.00,,,0.01,Wunderground v.1.15,2013-05-28 23:22:00,
2013-05-28 18:27:00,80.9,66.7,24.24,SW,218,0.0,11.0,62,0.00,,,0.01,Wunderground v.1.15,2013-05-28 23:27:00,
2013-05-28 18:32:00,80.8,66.1,24.24,South,181,0.0,3.0,61,0.00,,,0.01,Wunderground v.1.15,2013-05-28 23:32:00,
2013-05-28 18:37:00,80.6,66.4,24.24,NE,55,0.0,3.0,62,0.00,,,0.01,Wunderground v.1.15,2013-05-28 23:37:00,
2013-05-28 18:42:00,80.5,66.3,24.24,NW,317,1.0,2.0,62,0.00,,,0.01,Wunderground v.1.15,2013-05-28 23:42:00,
2013-05-28 18:47:00,80.3,66.1,24.24,North,360,1.0,7.0,62,0.00,,,0.01,Wunderground v.1.15,2013-05-28 23:47:00,
2013-05-28 18:52:00,80.2,66.0,24.24,WNW,295,0.0,1.0,62,0.00,,,0.01,Wunderground v.1.15,2013-05-28 23:52:00,
2013-05-28 18:57:00,80.0,65.8,24.24,SSW,202,0.0,9.0,62,0.00,,,0.01,Wunderground v.1.15,2013-05-28 23:57:00,
2013-05-28 19:02:00,79.9,65.7,24.24,SSW,205,0.0,3.0,62,0.00,,,0.01,Wunderground v.1.15,2013-05-29 00:02:00,
2013-05-28 19:07:00,79.7,66.0,24.24,SSW,194,5.0,7.0,63,0.00,,,0.01,Wunderground v.1.15,2013-05-29 00:07:00,
2013-05-28 19:12:00,79.4,65.2,24.24,SSW,205,0.0,10.0,62,0.00,,,0.01,Wunderground v.1.15,2013-05-29 00:12:00,
2013-05-28 19:17:00,79.2,65.5,24.24,SW,229,0.0,10.0,63,0.00,,,0.01,Wunderground v.1.15,2013-05-29 00:17:00,
2013-05-28 19:22:00,79.0,64.9,24.24,WSW,254,0.0,6.0,62,0.00,,,0.01,Wunderground v.1.15,2013-05-29 00:22:00,
2013-05-28 19:27:00,78.8,65.1,24.24,East,98,4.0,9.0,63,0.00,,,0.01,Wunderground v.1.15,2013-05-29 00:27:00,
2013-05-28 19:32:00,78.7,64.6,24.24,SSW,198,3.0,9.0,62,0.00,,,0.01,Wunderground v.1.15,2013-05-29 00:32:00,
2013-05-28 19:37:00,78.6,64.5,24.24,SW,217,1.0,9.0,62,0.00,,,0.01,Wunderground v.1.15,2013-05-29 00:37:00,
2013-05-28 19:42:00,78.4,64.8,24.24,WNW,286,1.0,6.0,63,0.00,,,0.01,Wunderground v.1.15,2013-05-29 00:42:00,
2013-05-28 19:47:00,78.3,64.7,24.24,SSE,167,1.0,6.0,63,0.00,,,0.01,Wunderground v.1.15,2013-05-29 00:47:00,
2013-05-28 19:52:00,78.2,64.6,24.24,WSW,244,0.0,4.0,63,0.00,,,0.01,Wunderground v.1.15,2013-05-29 00:52:00,
2013-05-28 19:57:00,78.0,64.8,24.24,SE,138,0.0,4.0,64,0.00,,,0.01,Wunderground v.1.15,2013-05-29 00:57:00,
2013-05-28 20:02:00,77.8,64.6,24.24,NNW,331,0.0,1.0,64,0.00,,,0.01,Wunderground v.1.15,2013-05-29 01:02:00,
2013-05-28 20:07:00,77.7,64.5,24.24,SW,216,4.0,4.0,64,0.00,,,0.01,Wunderground v.1.15,2013-05-29 01:07:00,
2013-05-28 20:12:00,77.6,64.9,24.24,SSW,213,0.0,7.0,65,0.00,,,0.01,Wunderground v.1.15,2013-05-29 01:12:00,
2013-05-28 20:17:00,77.5,64.8,24.24,SE,138,0.0,7.0,65,0.00,,,0.01,Wunderground v.1.15,2013-05-29 01:17:00,
2013-05-28 20:23:00,77.3,64.6,24.24,ESE,111,0.0,5.0,65,0.00,,,0.01,Wunderground v.1.15,2013-05-29 01:23:00,
2013-05-28 20:28:00,77.1,64.9,24.24,South,175,0.0,5.0,66,0.00,,,0.01,Wunderground v.1.15,2013-05-29 01:28:00,
2013-05-28 20:33:00,77.0,64.8,24.24,SSW,192,2.0,9.0,66,0.00,,,0.01,Wunderground v.1.15,2013-05-29 01:33:00,
2013-05-28 20:38:00,76.8,64.6,24.24,SE,134,2.0,9.0,66,0.00,,,0.01,Wunderground v.1.15,2013-05-29 01:38:00,
2013-05-28 20:43:00,76.6,64.4,24.25,West,273,1.0,5.0,66,0.00,,,0.01,Wunderground v.1.15,2013-05-29 01:43:00,
2013-05-28 20:48:00,76.5,64.3,24.25,ENE,75,0.0,5.0,66,0.00,,,0.01,Wunderground v.1.15,2013-05-29 01:48:00,
2013-05-28 20:53:00,76.4,64.6,24.24,SSW,209,4.0,9.0,67,0.00,,,0.01,Wunderground v.1.15,2013-05-29 01:53:00,
2013-05-28 20:58:00,76.2,64.4,24.24,SW,223,0.0,10.0,67,0.00,,,0.01,Wunderground v.1.15,2013-05-29 01:58:00,
2013-05-28 21:03:00,76.1,64.3,24.24,SW,219,0.0,10.0,67,0.00,,,0.01,Wunderground v.1.15,2013-05-29 02:03:00,
2013-05-28 21:08:00,76.0,64.2,24.24,SSW,194,0.0,10.0,67,0.00,,,0.01,Wunderground v.1.15,2013-05-29 02:08:00,
2013-05-28 21:13:00,75.9,64.2,24.24,SSW,198,0.0,1.0,67,0.00,,,0.01,Wunderground v.1.15,2013-05-29 02:13:00,
2013-05-28 21:18:00,75.8,64.1,24.24,SSW,211,1.0,3.0,67,0.00,,,0.01,Wunderground v.1.15,2013-05-29 02:18:00,
2013-05-28 21:23:00,75.7,64.4,24.24,WNW,296,0.0,4.0,68,0.00,,,0.01,Wunderground v.1.15,2013-05-29 02:23:00,
2013-05-28 21:28:00,75.6,64.3,24.24,South,188,0.0,4.0,68,0.00,,,0.01,Wunderground v.1.15,2013-05-29 02:28:00,
2013-05-28 21:33:00,75.5,64.2,24.24,SSW,204,0.0,3.0,68,0.00,,,0.01,Wunderground v.1.15,2013-05-29 02:33:00,
2013-05-28 21:38:00,75.4,64.1,24.24,SSW,201,0.0,3.0,68,0.00,,,0.01,Wunderground v.1.15,2013-05-29 02:38:00,
2013-05-28 21:43:00,75.3,64.4,24.24,SSW,201,0.0,1.0,69,0.00,,,0.01,Wunderground v.1.15,2013-05-29 02:43:00,
2013-05-28 21:48:00,75.1,64.2,24.24,South,191,0.0,1.0,69,0.00,,,0.01,Wunderground v.1.15,2013-05-29 02:48:00,
2013-05-28 21:54:00,74.9,64.0,24.24,South,191,0.0,1.0,69,0.00,,,0.01,Wunderground v.1.15,2013-05-29 02:54:00,
2013-05-28 21:59:00,74.8,63.9,24.24,SSW,200,0.0,1.0,69,0.00,,,0.01,Wunderground v.1.15,2013-05-29 02:59:00,
2013-05-28 22:04:00,74.6,64.2,24.24,North,355,0.0,2.0,70,0.00,,,0.01,Wunderground v.1.15,2013-05-29 03:04:00,
2013-05-28 22:09:00,74.5,64.1,24.24,North,355,0.0,2.0,70,0.00,,,0.01,Wunderground v.1.15,2013-05-29 03:09:00,
2013-05-28 22:13:00,74.3,63.9,24.25,North,355,0.0,1.0,70,0.00,,,0.01,Wunderground v.1.15,2013-05-29 03:13:00,
2013-05-28 22:18:00,74.2,63.8,24.25,SE,138,0.0,1.0,70,0.00,,,0.01,Wunderground v.1.15,2013-05-29 03:18:00,
2013-05-28 22:24:00,74.1,64.1,24.25,SSW,207,0.0,1.0,71,0.00,,,0.01,Wunderground v.1.15,2013-05-29 03:24:00,
2013-05-28 22:29:00,74.0,64.0,24.25,SSW,206,0.0,1.0,71,0.00,,,0.01,Wunderground v.1.15,2013-05-29 03:29:00,
2013-05-28 22:34:00,73.9,63.9,24.25,SSW,207,0.0,0.0,71,0.00,,,0.01,Wunderground v.1.15,2013-05-29 03:34:00,
2013-05-28 22:39:00,73.9,63.9,24.25,SSW,207,0.0,1.0,71,0.00,,,0.01,Wunderground v.1.15,2013-05-29 03:39:00,
2013-05-28 22:44:00,73.8,63.8,24.25,SSW,207,0.0,0.0,71,0.00,,,0.01,Wunderground v.1.15,2013-05-29 03:44:00,
2013-05-28 22:49:00,73.7,63.7,24.25,SSW,207,0.0,0.0,71,0.00,,,0.01,Wunderground v.1.15,2013-05-29 03:49:00,
2013-05-28 22:54:00,73.6,63.6,24.25,SSW,207,0.0,0.0,71,0.00,,,0.01,Wunderground v.1.15,2013-05-29 03:54:00,
2013-05-28 22:59:00,73.5,63.9,24.25,SSW,207,0.0,0.0,72,0.00,,,0.01,Wunderground v.1.15,2013-05-29 03:59:00,
2013-05-28 23:01:00,73.5,63.9,24.25,SSW,207,0.0,0.0,72,0.00,,,0.01,Wunderground v.1.15,2013-05-29 04:01:00,
2013-05-28 23:06:00,73.4,64.2,24.25,SSW,207,0.0,1.0,73,0.00,,,0.01,Wunderground v.1.15,2013-05-29 04:06:00,
2013-05-28 23:11:00,73.3,64.1,24.25,SSW,207,0.0,0.0,73,0.00,,,0.01,Wunderground v.1.15,2013-05-29 04:11:00,
2013-05-28 23:16:00,73.2,64.0,24.25,SSW,207,0.0,1.0,73,0.00,,,0.01,Wunderground v.1.15,2013-05-29 04:16:00,
2013-05-28 23:21:00,73.2,64.0,24.25,SW,219,0.0,1.0,73,0.00,,,0.01,Wunderground v.1.15,2013-05-29 04:21:00,
2013-05-28 23:26:00,73.2,64.4,24.25,SW,220,0.0,2.0,74,0.00,,,0.01,Wunderground v.1.15,2013-05-29 04:26:00,
2013-05-28 23:31:00,73.3,64.5,24.25,SW,227,0.0,1.0,74,0.00,,,0.01,Wunderground v.1.15,2013-05-29 04:31:00,
2013-05-28 23:36:00,73.3,64.5,24.25,SSW,196,0.0,2.0,74,0.00,,,0.01,Wunderground v.1.15,2013-05-29 04:36:00,
2013-05-28 23:41:00,73.3,64.5,24.25,WSW,244,0.0,0.0,74,0.00,,,0.01,Wunderground v.1.15,2013-05-29 04:41:00,
2013-05-28 23:46:00,73.3,64.5,24.25,WSW,244,0.0,1.0,74,0.00,,,0.01,Wunderground v.1.15,2013-05-29 04:46:00,
2013-05-28 23:51:00,73.3,64.9,24.25,SSW,205,0.0,2.0,75,0.00,,,0.01,Wunderground v.1.15,2013-05-29 04:51:00,
2013-05-28 23:56:00,73.2,64.8,24.25,NNW,329,2.0,3.0,75,0.00,,,0.01,Wunderground v.1.15,2013-05-29 04:56:00,